GW3504 Weather Reports


time (UTC)temp
C
wind
direction
speed
KPH
gust
KPH
rain 1hr
cm
rain 24hr
cm
rain mn
cm
humidity
%
barometer
mb
20260905205023 37 107 3.2 11.3 0.00 0.00 0.00 38 1013.3
20260905204547 37 111 0.0 11.3 0.00 0.00 0.00 38 1013.3
20260905204025 37 163 4.8 14.5 0.00 0.00 0.00 38 1013.5
20260905203524 37 174 3.2 14.5 0.00 0.00 0.00 37 1013.6
20260905203043 38 177 3.2 14.5 0.00 0.00 0.00 37 1013.6
20260905202524 37 0 4.8 11.3 0.00 0.00 0.00 37 1013.7
20260905202024 37 180 0.0 4.8 0.00 0.00 0.00 38 1013.8
20260905201542 37 0 0.0 11.3 0.00 0.00 0.00 39 1013.9
20260905201024 37 311 1.6 11.3 0.00 0.00 0.00 37 1014.0
20260905200524 37 167 3.2 8.0 0.00 0.00 0.00 39 1014.1
20260905200049 37 0 1.6 12.9 0.00 0.00 0.00 39 1014.1
20260905195524 37 210 1.6 12.9 0.00 0.00 0.00 40 1014.1
20260905195028 36 103 3.2 12.9 0.00 0.00 0.00 40 1014.3
20260905194550 37 84 0.0 12.9 0.00 0.00 0.00 40 1014.3
20260905194025 37 92 3.2 14.5 0.00 0.00 0.00 39 1014.5
20260905193526 37 0 4.8 16.1 0.00 0.00 0.00 40 1014.5
20260905193046 36 155 8.0 16.1 0.00 0.00 0.00 39 1014.5
20260905192527 37 169 6.4 16.1 0.00 0.00 0.00 39 1014.5
20260905192026 37 13 1.6 9.7 0.00 0.00 0.00 40 1014.5
20260905191548 37 0 1.6 9.7 0.00 0.00 0.00 39 1014.5
20260905191023 37 139 3.2 11.3 0.00 0.00 0.00 39 1014.5
20260905190529 37 153 1.6 11.3 0.00 0.00 0.00 39 1014.6
20260905190100 37 260 1.6 14.5 0.00 0.00 0.00 38 1014.6
20260905185524 37 165 1.6 14.5 0.00 0.00 0.00 39 1014.6
20260905185024 37 0 3.2 12.9 0.00 0.00 0.00 41 1014.6
20260905184609 36 0 1.6 8.0 0.00 0.00 0.00 43 1014.6
20260905184024 35 149 1.6 12.9 0.00 0.00 0.00 43 1014.8
20260905183528 36 271 3.2 17.7 0.00 0.00 0.00 43 1015.0
20260905183047 36 164 4.8 17.7 0.00 0.00 0.00 42 1015.1
20260905182526 36 98 1.6 16.1 0.00 0.00 0.00 41 1015.1
20260905182025 36 112 6.4 16.1 0.00 0.00 0.00 41 1015.2
20260905181542 36 0 3.2 14.5 0.00 0.00 0.00 42 1015.3
20260905181025 36 234 6.4 14.5 0.00 0.00 0.00 43 1015.3
20260905180526 36 0 0.0 8.0 0.00 0.00 0.00 43 1015.3
20260905180050 36 96 0.0 12.9 0.00 0.00 0.00 46 1015.5
20260905175524 35 0 0.0 12.9 0.00 0.00 0.00 47 1015.4
20260905175025 36 179 1.6 14.5 0.00 0.00 0.00 46 1015.6
20260905174555 35 273 1.6 14.5 0.00 0.00 0.00 45 1015.7
20260905174024 35 190 4.8 14.5 0.00 0.00 0.00 46 1015.8
20260905173525 35 117 3.2 14.5 0.00 0.00 0.00 46 1015.8
20260905173051 35 205 1.6 11.3 0.00 0.00 0.00 47 1015.9
20260905172524 35 69 4.8 11.3 0.00 0.00 0.00 46 1015.9
20260905172026 35 0 4.8 9.7 0.00 0.00 0.00 49 1015.9
20260905171548 34 127 1.6 9.7 0.00 0.00 0.00 49 1016.0
20260905171026 34 98 1.6 9.7 0.00 0.00 0.00 50 1016.0
20260905170525 34 148 3.2 9.7 0.00 0.00 0.00 51 1016.0
20260905170045 35 103 1.6 6.4 0.00 0.00 0.00 51 1016.1
20260905165526 34 0 1.6 6.4 0.00 0.00 0.00 53 1016.1
20260905165024 34 100 0.0 6.4 0.00 0.00 0.00 52 1016.1
20260905164544 34 212 0.0 6.4 0.00 0.00 0.00 53 1016.1
20260905164025 33 0 0.0 4.8 0.00 0.00 0.00 55 1016.0
20260905163524 33 0 0.0 8.0 0.00 0.00 0.00 53 1016.1
20260905163050 33 0 0.0 8.0 0.00 0.00 0.00 55 1016.2
20260905162524 33 98 0.0 8.0 0.00 0.00 0.00 55 1016.1
20260905162025 33 0 3.2 9.7 0.00 0.00 0.00 55 1016.1
20260905161544 32 0 0.0 9.7 0.00 0.00 0.00 55 1016.1
20260905161025 32 182 3.2 9.7 0.00 0.00 0.00 56 1016.1
20260905160524 32 0 1.6 9.7 0.00 0.00 0.00 56 1016.1
20260905160047 32 104 1.6 11.3 0.00 0.00 0.00 58 1016.0
20260905155525 32 179 4.8 11.3 0.00 0.00 0.00 59 1016.0
20260905155023 32 0 0.0 11.3 0.00 0.00 0.00 59 1016.0
20260905154552 31 209 4.8 11.3 0.00 0.00 0.00 60 1016.0
20260905154023 31 180 3.2 11.3 0.00 0.00 0.00 60 1016.0
20260905153525 31 128 3.2 11.3 0.00 0.00 0.00 62 1015.9
20260905153046 30 215 4.8 14.5 0.00 0.00 0.00 62 1015.9
20260905152525 30 167 4.8 14.5 0.00 0.00 0.00 62 1015.8
20260905152025 31 0 0.0 9.7 0.00 0.00 0.00 59 1015.8
20260905151544 30 0 1.6 9.7 0.00 0.00 0.00 62 1015.7
20260905151027 30 163 1.6 6.4 0.00 0.00 0.00 61 1015.7
20260905150528 30 111 0.0 6.4 0.00 0.00 0.00 62 1015.7
20260905150043 30 0 3.2 8.0 0.00 0.00 0.00 63 1015.7
20260905145525 29 0 1.6 8.0 0.00 0.00 0.00 62 1015.7
20260905145024 30 155 3.2 6.4 0.00 0.00 0.00 63 1015.6
20260905144549 29 0 1.6 6.4 0.00 0.00 0.00 65 1015.5
20260905144025 28 166 3.2 8.0 0.00 0.00 0.00 64 1015.6
20260905143524 28 0 1.6 8.0 0.00 0.00 0.00 64 1015.6
20260905143046 29 0 0.0 4.8 0.00 0.00 0.00 65 1015.5
20260905142524 28 0 0.0 4.8 0.00 0.00 0.00 64 1015.5
20260905142025 28 0 0.0 3.2 0.00 0.00 0.00 64 1015.5
20260905141556 28 0 0.0 0.0 0.00 0.00 0.00 64 1015.5
20260905141023 28 0 0.0 0.0 0.00 0.00 0.00 66 1015.4
20260905140525 28 0 0.0 0.0 0.00 0.00 0.00 67 1015.4
20260905140050 27 0 0.0 0.0 0.00 0.00 0.00 67 1015.3
20260905135525 27 0 0.0 0.0 0.00 0.00 0.00 68 1015.4
20260905135024 27 0 0.0 0.0 0.00 0.00 0.00 68 1015.4
20260905134602 27 0 0.0 0.0 0.00 0.00 0.00 70 1015.3
20260905134025 27 0 0.0 0.0 0.00 0.00 0.00 70 1015.3
20260905133523 26 0 0.0 0.0 0.00 0.00 0.00 69 1015.3
20260905133042 26 0 0.0 0.0 0.00 0.00 0.00 70 1015.2
20260905132525 26 0 0.0 0.0 0.00 0.00 0.00 72 1015.1
20260905132022 26 0 0.0 0.0 0.00 0.00 0.00 73 1015.1
20260905131559 25 0 0.0 0.0 0.00 0.00 0.00 74 1015.1
20260905131025 25 0 0.0 0.0 0.00 0.00 0.00 77 1015.0
20260905130524 24 0 0.0 0.0 0.00 0.00 0.00 79 1014.9
20260905130045 23 0 0.0 0.0 0.00 0.00 0.00 80 1015.0
20260905125525 23 0 0.0 0.0 0.00 0.00 0.00 80 1014.9
20260905125025 23 0 0.0 0.0 0.00 0.00 0.00 79 1014.9
20260905124548 23 0 0.0 0.0 0.00 0.00 0.00 80 1014.7
20260905124025 23 0 0.0 0.0 0.00 0.00 0.00 80 1014.6
20260905123524 23 0 0.0 0.0 0.00 0.00 0.00 80 1014.6
20260905123053 23 0 0.0 0.0 0.00 0.00 0.00 80 1014.5
20260905122528 23 0 0.0 0.0 0.00 0.00 0.00 80 1014.5
20260905122025 23 0 0.0 0.0 0.00 0.00 0.00 80 1014.5
20260905121550 23 0 0.0 0.0 0.00 0.00 0.00 80 1014.3
20260905121024 23 0 0.0 0.0 0.00 0.00 0.00 80 1014.2
20260905120525 23 0 0.0 0.0 0.00 0.00 0.00 80 1014.1
20260905120050 23 0 0.0 0.0 0.00 0.00 0.00 80 1014.1
20260905115521 23 0 0.0 0.0 0.00 0.00 0.00 80 1014.1
20260905115026 23 0 0.0 0.0 0.00 0.00 0.00 80 1014.1
20260905114550 23 0 0.0 0.0 0.00 0.00 0.00 80 1014.0
20260905114026 23 0 0.0 0.0 0.00 0.00 0.00 81 1013.9
20260905113523 23 0 0.0 0.0 0.00 0.00 0.00 81 1013.9
20260905113046 23 0 0.0 0.0 0.00 0.00 0.00 81 1013.8
20260905112523 23 0 0.0 1.6 0.00 0.00 0.00 81 1013.9
20260905112023 23 0 0.0 3.2 0.00 0.00 0.00 81 1013.8
20260905111553 23 0 0.0 4.8 0.00 0.00 0.00 81 1013.8
20260905111028 23 0 0.0 4.8 0.00 0.00 0.00 82 1014.0
20260905110524 22 0 0.0 0.0 0.00 0.00 0.00 83 1013.9
20260905110044 22 0 0.0 0.0 0.00 0.00 0.00 83 1013.8
20260905105521 22 0 0.0 0.0 0.00 0.00 0.00 83 1013.8
20260905105025 23 0 0.0 0.0 0.00 0.00 0.00 83 1013.8
20260905104540 23 0 0.0 0.0 0.00 0.00 0.00 83 1013.8
20260905104028 23 0 0.0 0.0 0.00 0.00 0.00 83 1013.7
20260905103525 23 0 0.0 0.0 0.00 0.00 0.00 83 1013.8
20260905103048 23 0 0.0 0.0 0.00 0.00 0.00 83 1013.8
20260905102525 23 0 0.0 0.0 0.00 0.00 0.00 83 1013.8
20260905102025 23 0 0.0 0.0 0.00 0.00 0.00 83 1013.8
20260905101552 23 0 0.0 0.0 0.00 0.00 0.00 83 1013.8
20260905101024 23 0 0.0 0.0 0.00 0.00 0.00 83 1013.7
20260905100523 23 0 0.0 0.0 0.00 0.00 0.00 83 1013.6
20260905100044 23 0 0.0 0.0 0.00 0.00 0.00 83 1013.7
20260905095524 23 0 0.0 0.0 0.00 0.00 0.00 83 1013.8
20260905095024 23 0 0.0 0.0 0.00 0.00 0.00 82 1013.8
20260905094552 23 0 0.0 0.0 0.00 0.00 0.00 82 1013.8
20260905094025 23 0 0.0 0.0 0.00 0.00 0.00 82 1013.9
20260905093523 23 0 0.0 0.0 0.00 0.00 0.00 81 1013.9
20260905093047 23 0 0.0 0.0 0.00 0.00 0.00 79 1013.9
20260905092524 23 0 0.0 0.0 0.00 0.00 0.00 79 1013.8
20260905092026 23 0 0.0 0.0 0.00 0.00 0.00 78 1013.9
20260905091547 23 0 0.0 0.0 0.00 0.00 0.00 78 1014.0
20260905091025 23 0 0.0 0.0 0.00 0.00 0.00 78 1014.0
20260905090524 23 0 0.0 0.0 0.00 0.00 0.00 77 1014.1
20260905090049 24 0 0.0 0.0 0.00 0.00 0.00 77 1014.0
20260905085523 24 0 0.0 0.0 0.00 0.00 0.00 76 1014.0
20260905085022 24 0 0.0 0.0 0.00 0.00 0.00 76 1013.9
20260905084601 24 0 0.0 0.0 0.00 0.00 0.00 76 1013.9
20260905084024 24 0 0.0 0.0 0.00 0.00 0.00 76 1013.8
20260905083524 24 0 0.0 0.0 0.00 0.00 0.00 75 1013.8
20260905083044 24 0 0.0 0.0 0.00 0.00 0.00 75 1013.9
20260905082524 24 0 0.0 0.0 0.00 0.00 0.00 75 1013.9
20260905082027 25 0 0.0 0.0 0.00 0.00 0.00 74 1013.9
20260905081544 25 0 0.0 0.0 0.00 0.00 0.00 74 1013.8
20260905081027 25 0 0.0 0.0 0.00 0.00 0.00 73 1013.8
20260905080524 25 0 0.0 0.0 0.00 0.00 0.00 73 1013.8
20260905080050 25 0 0.0 0.0 0.00 0.00 0.00 73 1013.8
20260905075528 25 0 0.0 0.0 0.00 0.00 0.00 72 1013.8
20260905075024 25 0 0.0 0.0 0.00 0.00 0.00 72 1013.8
20260905074544 25 0 0.0 0.0 0.00 0.00 0.00 72 1013.8
20260905074024 25 0 0.0 0.0 0.00 0.00 0.00 72 1013.9
20260905073525 25 0 0.0 0.0 0.00 0.00 0.00 72 1013.9
20260905073047 25 0 0.0 0.0 0.00 0.00 0.00 72 1013.9
20260905072525 25 0 0.0 0.0 0.00 0.00 0.00 72 1013.9
20260905072023 25 0 0.0 0.0 0.00 0.00 0.00 72 1013.9
20260905071544 25 0 0.0 0.0 0.00 0.00 0.00 72 1014.0
20260905071024 25 0 0.0 0.0 0.00 0.00 0.00 71 1013.9
20260905070524 25 0 0.0 0.0 0.00 0.00 0.00 71 1014.0
20260905070043 26 0 0.0 0.0 0.00 0.00 0.00 71 1014.0
20260905065522 26 0 0.0 0.0 0.00 0.00 0.00 70 1014.0
20260905065023 26 0 0.0 0.0 0.00 0.00 0.00 70 1014.0
20260905064548 26 0 0.0 0.0 0.00 0.00 0.00 70 1014.0
20260905064023 26 0 0.0 0.0 0.00 0.00 0.00 70 1014.0
20260905063529 26 0 0.0 0.0 0.00 0.00 0.00 70 1014.1
20260905063049 26 0 0.0 0.0 0.00 0.00 0.00 70 1014.0
20260905062529 26 0 0.0 0.0 0.00 0.00 0.00 70 1014.0
20260905062026 26 0 0.0 0.0 0.00 0.00 0.00 69 1014.1
20260905061541 26 0 0.0 0.0 0.00 0.00 0.00 69 1014.1
20260905061023 26 0 0.0 0.0 0.00 0.00 0.00 69 1014.1
20260905060524 26 0 0.0 0.0 0.00 0.00 0.00 69 1014.1
20260905060044 26 0 0.0 0.0 0.00 0.00 0.00 69 1014.1
20260905055526 26 0 0.0 0.0 0.00 0.00 0.00 70 1014.2
20260905055023 26 0 0.0 0.0 0.00 0.00 0.00 69 1014.1
20260905054551 26 0 0.0 1.6 0.00 0.00 0.00 68 1014.1
20260905054023 26 0 0.0 1.6 0.00 0.00 0.00 68 1014.1
20260905053524 26 0 0.0 0.0 0.00 0.00 0.00 68 1014.0
20260905053052 26 0 0.0 0.0 0.00 0.00 0.00 68 1013.9
20260905052527 26 0 0.0 0.0 0.00 0.00 0.00 68 1013.9
20260905052025 27 0 0.0 0.0 0.00 0.00 0.00 67 1013.9
20260905051542 27 0 0.0 0.0 0.00 0.00 0.00 67 1014.0
20260905051024 27 0 0.0 0.0 0.00 0.00 0.00 67 1013.9
20260905050526 27 0 0.0 0.0 0.00 0.00 0.00 66 1014.0
20260905050046 27 0 0.0 0.0 0.00 0.00 0.00 66 1014.0
20260905045524 27 0 0.0 0.0 0.00 0.00 0.00 66 1014.0
20260905045023 27 0 0.0 0.0 0.00 0.00 0.00 65 1014.1
20260905044548 27 0 0.0 0.0 0.00 0.00 0.00 65 1014.1
20260905044025 27 0 0.0 0.0 0.00 0.00 0.00 65 1014.0
20260905043524 27 0 0.0 0.0 0.00 0.00 0.00 65 1014.1
20260905043048 27 0 0.0 0.0 0.00 0.00 0.00 65 1014.1
20260905042524 27 0 0.0 0.0 0.00 0.00 0.00 65 1014.1
20260905042040 28 0 0.0 0.0 0.00 0.00 0.00 65 1014.1
20260905041545 28 0 0.0 0.0 0.00 0.00 0.00 64 1014.1
20260905041029 28 0 0.0 0.0 0.00 0.00 0.00 64 1014.0
20260905040525 28 0 0.0 1.6 0.00 0.00 0.00 63 1014.1
20260905040048 28 0 0.0 1.6 0.00 0.00 0.00 62 1014.0
20260905035522 28 0 0.0 4.8 0.00 0.00 0.00 62 1013.8
20260905035024 28 0 0.0 6.4 0.00 0.00 0.00 62 1013.8
20260905034549 28 0 0.0 6.4 0.00 0.00 0.00 62 1013.8
20260905034023 28 0 0.0 3.2 0.00 0.00 0.00 62 1013.8
20260905033523 28 0 0.0 3.2 0.00 0.00 0.00 62 1013.8
20260905033042 28 0 0.0 3.2 0.00 0.00 0.00 62 1013.9
20260905032523 28 0 0.0 3.2 0.00 0.00 0.00 62 1013.7
20260905032024 29 0 0.0 0.0 0.00 0.00 0.00 62 1013.7
20260905031542 29 0 0.0 0.0 0.00 0.00 0.00 62 1013.8
20260905031025 28 0 0.0 0.0 0.00 0.00 0.00 62 1013.7
20260905030525 28 0 0.0 0.0 0.00 0.00 0.00 62 1013.7
20260905030049 29 0 0.0 0.0 0.00 0.00 0.00 63 1013.7
20260905025523 29 0 0.0 0.0 0.00 0.00 0.00 62 1013.7
20260905025024 29 0 0.0 0.0 0.00 0.00 0.00 62 1013.6
20260905024613 29 0 0.0 0.0 0.00 0.00 0.00 62 1013.6
20260905024025 29 0 0.0 0.0 0.00 0.00 0.00 61 1013.5
20260905023524 29 0 0.0 0.0 0.00 0.00 0.00 61 1013.5
20260905023045 30 0 0.0 0.0 0.00 0.00 0.00 60 1013.5
20260905022523 30 0 0.0 0.0 0.00 0.00 0.00 60 1013.4
20260905022026 30 0 0.0 0.0 0.00 0.00 0.00 59 1013.3
20260905021543 30 0 0.0 0.0 0.00 0.00 0.00 58 1013.3
20260905021024 30 0 0.0 0.0 0.00 0.00 0.00 58 1013.2
20260905020523 30 0 0.0 0.0 0.00 0.00 0.00 58 1013.1
20260905020051 30 0 0.0 0.0 0.00 0.00 0.00 57 1013.1
20260905015523 31 0 0.0 0.0 0.00 0.00 0.00 57 1012.9
20260905015024 31 0 0.0 1.6 0.00 0.00 0.00 56 1012.8
20260905014545 31 0 0.0 1.6 0.00 0.00 0.00 55 1012.7
20260905014025 31 0 0.0 0.0 0.00 0.00 0.00 55 1012.8
20260905013526 31 0 0.0 0.0 0.00 0.00 0.00 55 1012.7
20260905013052 31 0 0.0 0.0 0.00 0.00 0.00 55 1012.6
20260905012523 31 0 0.0 0.0 0.00 0.00 0.00 55 1012.6
20260905012022 31 0 0.0 0.0 0.00 0.00 0.00 54 1012.4
20260905011556 31 0 0.0 0.0 0.00 0.00 0.00 53 1012.4
20260905011025 32 0 0.0 0.0 0.00 0.00 0.00 54 1012.4
20260905010522 32 0 0.0 0.0 0.00 0.00 0.00 53 1012.4
20260905010046 32 0 0.0 0.0 0.00 0.00 0.00 52 1012.4
20260905005525 32 0 0.0 0.0 0.00 0.00 0.00 51 1012.3
20260905005024 33 0 0.0 0.0 0.00 0.00 0.00 51 1012.3
20260905004550 33 0 0.0 0.0 0.00 0.00 0.00 50 1012.4
20260905004024 33 0 0.0 0.0 0.00 0.00 0.00 49 1012.4
20260905003524 33 0 0.0 0.0 0.00 0.00 0.00 49 1012.4
20260905003051 33 0 0.0 1.6 0.00 0.00 0.00 48 1012.5
20260905002522 34 0 0.0 3.2 0.00 0.00 0.00 48 1012.4
20260905002024 34 0 0.0 3.2 0.00 0.00 0.00 47 1012.4
20260905001547 34 0 0.0 3.2 0.00 0.00 0.00 47 1012.4
20260905001024 35 0 0.0 3.2 0.00 0.00 0.00 47 1012.4
20260905000526 35 0 0.0 6.4 0.00 0.00 0.00 47 1012.5
20260905000047 35 0 0.0 6.4 0.00 0.00 0.00 47 1012.5
20260904235523 35 0 0.0 6.4 0.00 0.00 0.00 46 1012.6
20260904235029 35 178 0.0 16.1 0.00 0.00 0.00 46 1012.6
20260904234550 35 210 3.2 16.1 0.00 0.00 0.00 46 1012.5
20260904234024 35 172 3.2 14.5 0.00 0.00 0.00 45 1012.7
20260904233524 35 0 4.8 12.9 0.00 0.00 0.00 45 1012.7
20260904233054 35 258 3.2 12.9 0.00 0.00 0.00 45 1012.7
20260904232526 35 171 3.2 12.9 0.00 0.00 0.00 45 1012.7
20260904232028 35 166 3.2 11.3 0.00 0.00 0.00 45 1012.7
20260904231552 35 159 3.2 12.9 0.00 0.00 0.00 45 1012.8
20260904231023 35 148 4.8 12.9 0.00 0.00 0.00 44 1012.7
20260904230524 36 159 3.2 11.3 0.00 0.00 0.00 44 1012.7
20260904230048 36 0 3.2 9.7 0.00 0.00 0.00 44 1012.8
20260904225528 36 0 0.0 11.3 0.00 0.00 0.00 45 1012.8
20260904225025 36 159 1.6 14.5 0.00 0.00 0.00 45 1012.8
20260904224548 36 232 4.8 14.5 0.00 0.00 0.00 44 1012.8
20260904224024 36 0 1.6 11.3 0.00 0.00 0.00 43 1012.7
20260904223526 36 198 4.8 12.9 0.00 0.00 0.00 43 1012.6
20260904223044 36 0 1.6 17.7 0.00 0.00 0.00 44 1012.6
20260904222521 35 226 4.8 17.7 0.00 0.00 0.00 44 1012.5
20260904222025 36 148 4.8 16.1 0.00 0.00 0.00 43 1012.6
20260904221541 35 0 3.2 17.7 0.00 0.00 0.00 43 1012.7
20260904221023 36 175 4.8 17.7 0.00 0.00 0.00 44 1012.7
20260904220523 36 197 1.6 19.3 0.00 0.00 0.00 43 1012.8
20260904220052 36 141 3.2 19.3 0.00 0.00 0.00 44 1012.7
20260904215525 36 163 1.6 17.7 0.00 0.00 0.00 43 1012.9
20260904215023 36 162 3.2 19.3 0.00 0.00 0.00 43 1012.9
20260904214549 36 171 4.8 19.3 0.00 0.00 0.00 42 1012.9
20260904214029 36 154 3.2 16.1 0.00 0.00 0.00 43 1013.0
20260904213525 35 195 4.8 19.3 0.00 0.00 0.00 43 1013.0
20260904213043 35 144 6.4 24.1 0.00 0.00 0.00 43 1013.0
20260904212523 35 172 8.0 24.1 0.00 0.00 0.00 42 1013.0
20260904212028 35 156 8.0 24.1 0.00 0.00 0.00 42 1013.1
20260904211547 36 169 6.4 22.5 0.00 0.00 0.00 42 1013.1
20260904211024 36 287 1.6 19.3 0.00 0.00 0.00 42 1013.2
20260904210525 36 74 1.6 20.9 0.00 0.00 0.00 43 1013.1
20260904210046 36 180 8.0 20.9 0.00 0.00 0.00 43 1013.3
20260904205525 36 185 4.8 17.7 0.00 0.00 0.00 43 1013.3